DMSP 5D-2 F13 DEB, 40471

Orbit data source: Space-Track

DMSP 5D-2 F13 DEB, 40471 is space debris in SSO originally from a launch on Fri, 24 Mar 1995 UTC launched from the Air Force Western Test Range (AFWTR). Debris objects in space refer to the collection of defunct objects orbiting the Earth. Examples of debris include non-operational satellites, rocket bodies, and fragments generated from explosions, collisions, or faulty payload assembly.

Loading next visibility...
Identifier
40471, 1995-015BP
Orbit
SSO
Country
Flag of USUS
Related business
Manufacturer
Unknown
Mission
Spacecraft
Bus & Motor
Unknown
Mass
Unknown
Launch date (UTC)
1995-03-24 (31 years ago)
Launch vehicle
Unknown
Launch site
Air Force Western Test Range (AFWTR)
Object type
Payload
Rocket body
Debris
Shape & HBR
Unknown shape, 0.1 m
Radar Cross Section
Medium (>0.1 m² and <1 m²)

Expand to show TLE details & history
Last TLE update: 1 day ago

TLE from 1 day ago
0 DMSP 5D-2 F13 DEB
1 40471U 95015BP  26236.37693036  .00002391  00000-0  95396-3 0  9992
2 40471  98.8820 267.2047 0022615 119.7955 240.5479 14.29357215591964
Epoch: 2026-08-24T09:02Z
TLE epoch observation values (Epoch: 2026-08-24T09:02:46.783Z)
Latitude
0.00002°
Longitude
158.85026°
Altitude
804.806 km
Speed
7.447 km/s
True Right ascension
17h 48m 49s
True Declination
0° 00' 00"
Sunlit
Object was in daylight at epoch
Visualization orbit readout
Latitude
Unknown
Longitude
Unknown
Altitude
Unknown
Speed
Unknown
Apparent Right ascension
Unknown
Apparent Declination
Unknown
Sunlit
N/A
Visualization observer readout
Local Sidereal Time
05:18:32
Azimuth
Unknown
Elevation
Unknown
Doppler factor
Unknown
Orbital elements
Apogee altitude
807.248 km
Perigee altitude
774.822 km
Semi-major axis
7,169.172 km
Eccentricity
0.00226
Inclination
98.882°
RAAN
267.2047°
Arg. of periapsis
119.7955°
True anomaly
240.32256°
Mean anomaly
240.5479°
Eccentric anomaly
240.4352°
Mean motion
3.57552 °/min
Orbital period
100.68 mins
BSTAR
0.00095396
Loading maneuver chart data...
Computing Atmospheric mass density...

Documentation

Showing up to 5 results
|